Location: Dumpton Point
(51.3500°N, 1.4433°E)
Time: 09:54:47
(UTC+00:00)

A-11 Canister half - All Passes

Search period start: 30 September 2022 00:00
Search period end: 10 October 2022 00:00
Orbit: 1515 x 1684 km, 47.2° (Epoch: 29 September)

Date Brightness Start Highest point End Pass type
(mag) Time Alt. Az. Time Alt. Az. Time Alt. Az.
30 Sep - 00:54:21 10° W 01:03:40 68° S 01:12:48 10° ESE visible
30 Sep - 02:59:07 10° W 03:07:40 43° SSW 03:16:10 10° SE visible
30 Sep - 05:05:39 10° W 05:10:31 16° SW 05:15:24 10° SSW visible
30 Sep - 20:24:28 10° SSW 20:32:39 33° SE 20:40:36 10° E visible
30 Sep - 22:27:01 10° WSW 22:36:22 61° SSE 22:45:28 10° E visible
01 Oct - 00:31:25 10° W 00:40:46 68° S 00:49:55 10° ESE visible
01 Oct - 02:36:11 10° W 02:44:49 45° SSW 02:53:22 10° SE visible
01 Oct - 04:42:28 10° W 04:47:45 17° SW 04:53:02 10° SSW visible
01 Oct - 20:01:44 10° SSW 20:09:48 31° SE 20:17:39 10° E visible
01 Oct - 22:04:07 10° WSW 22:13:29 60° SSE 22:22:34 10° E visible
02 Oct - 00:08:30 10° W 00:17:52 69° S 00:27:02 10° ESE visible
02 Oct - 02:13:15 10° W 02:21:58 46° SSW 02:30:35 10° SE visible
02 Oct - 04:19:18 10° W 04:24:58 18° SW 04:30:37 10° SSW visible
02 Oct - 19:39:02 10° SSW 19:46:58 30° SE 19:54:42 10° E visible
02 Oct - 21:41:15 10° SW 21:50:36 59° SSE 21:59:40 10° E visible
02 Oct - 23:45:34 10° W 23:54:58 69° S 00:04:09 10° ESE visible
03 Oct - 01:50:18 10° W 01:59:07 48° SSW 02:07:48 10° SE visible
03 Oct - 03:56:11 10° W 04:02:11 19° SW 04:08:09 10° S visible
03 Oct - 19:16:20 10° S 19:24:08 28° SE 19:31:44 10° E visible
03 Oct - 21:18:21 10° SW 21:27:42 57° SSE 21:36:47 10° E visible
03 Oct - 23:22:38 10° W 23:32:04 70° S 23:41:16 10° ESE visible
04 Oct - 01:27:22 10° W 01:36:16 50° SSW 01:45:01 10° SE visible
04 Oct - 03:33:06 10° W 03:39:23 21° SW 03:45:40 10° S visible
04 Oct - 18:53:40 10° S 19:01:19 27° SE 19:08:45 10° E visible
04 Oct - 20:55:28 10° SW 21:04:49 56° SSE 21:13:52 10° E visible
04 Oct - 22:59:42 10° W 23:09:10 70° S 23:18:23 10° E visible
05 Oct - 01:04:26 10° W 01:13:24 51° SSW 01:22:12 10° SE visible
05 Oct - 03:10:02 10° W 03:16:35 22° SW 03:23:08 10° S visible
05 Oct - 18:31:01 10° S 18:38:28 25° SE 18:45:45 10° E visible
05 Oct - 20:32:35 10° SW 20:41:56 54° SSE 20:50:59 10° E visible
05 Oct - 22:36:45 10° W 22:46:16 70° S 22:55:30 10° E visible
06 Oct - 00:41:29 10° W 00:50:32 53° SSW 00:59:23 10° SE night (unlit)
06 Oct - 02:46:58 10° W 02:53:48 24° SW 03:00:34 10° S visible
06 Oct - 18:08:24 10° S 18:15:39 24° SE 18:22:45 10° E visible
06 Oct - 20:09:43 10° SW 20:19:03 53° SSE 20:28:05 10° E visible
06 Oct - 22:13:49 10° W 22:23:22 70° S 22:32:36 10° E visible
07 Oct - 00:18:33 10° W 00:27:40 55° SSW 00:36:34 10° SE visible
07 Oct - 02:23:56 10° W 02:31:00 25° SW 02:38:00 10° S visible
07 Oct - 17:45:47 10° S 17:52:50 23° SE 17:59:43 10° E visible
07 Oct - 19:46:51 10° SW 19:56:10 51° SSE 20:05:10 10° E visible
07 Oct - 21:50:53 10° WSW 22:00:27 70° S 22:09:43 10° E visible
07 Oct - 23:55:37 10° W 00:04:47 56° SSW 00:13:44 10° SE visible
08 Oct - 02:00:54 10° W 02:08:11 26° SW 02:15:24 10° S night (unlit)
08 Oct - 17:23:13 10° S 17:30:01 21° SE 17:36:40 10° E daylight
08 Oct - 19:23:59 10° SW 19:33:17 50° SSE 19:42:16 10° E visible
08 Oct - 21:27:56 10° WSW 21:37:33 70° S 21:46:49 10° E visible
08 Oct - 23:32:40 10° W 23:41:55 58° SSW 23:50:54 10° SE visible
09 Oct - 01:37:53 10° W 01:45:23 28° SW 01:52:47 10° S night (unlit)
09 Oct - 17:00:39 10° S 17:07:12 20° SE 17:13:36 10° E daylight
09 Oct - 19:01:09 10° SW 19:10:24 48° SSE 19:19:22 10° E visible
09 Oct - 21:05:01 10° WSW 21:14:38 70° S 21:23:56 10° E visible
09 Oct - 23:09:43 10° W 23:19:02 59° SSW 23:28:04 10° ESE visible
